STARLINK-2219, 48569

Orbit data source: Space-Track

STARLINK-2219, 48569 is a payload satellite owned by SpaceX/Seattle (US) in LEO that was launched on Sat, 15 May 2021 UTC via an FALCON 9 launch vehicle from the Air Force Eastern Test Range (AFETR). Payload-class satellites include a variety of spacecraft equipped with specific instruments for various scientific and technological missions. These include communications satellites like Starlink; space stations such as the ISS; scientific satellites like the Hubble; Earth observation satellites from companies like Planet Labs, Umbra, and HawkEye 360; GPS; miniature CubeSats for education and research; and military/defense satellites.

Loading next visibility...
Identifier
48569, 2021-041S
Orbit
LEO
Country
Flag of USUS
Related business
Manufacturer
SpaceX/Seattle
Mission
Operational Commercial Communications
Bus & Motor
STARLINK, Unknown motor
Mass
260 kg wet, ~248 kg dry
Launch date (UTC)
2021-05-15 (5 years ago)
Launch vehicle
FALCON 9
Launch site
Air Force Eastern Test Range (AFETR)
Object type
Payload
Rocket body
Debris
Shape & HBR
Box + 1 Pan, 10.1 m
Radar Cross Section
13.562 m², Large (>1 m²)

Expand to show TLE details & history
Last TLE update: 23 hours ago

TLE from 23 hours ago
0 STARLINK-2219
1 48569U 21041S   25349.83463067 -.00000010  00000-0  18191-4 0  9996
2 48569  53.0543 148.0560 0001310  96.0611 264.0527 15.06390873252564
Epoch: 2025-12-15T20:01Z
TLE epoch observation values (Epoch: 2025-12-15T20:01:52.089Z)
Latitude
-0.00006°
Longitude
122.86141°
Altitude
548.213 km
Speed
7.589 km/s
True Right ascension
09h 52m 13s
True Declination
0° 00' 00"
Sunlit
Object was in full shadow at epoch
Visualization orbit readout
Latitude
Unknown
Longitude
Unknown
Altitude
Unknown
Speed
Unknown
Apparent Right ascension
Unknown
Apparent Declination
Unknown
Sunlit
N/A
Visualization observer readout
Local Sidereal Time
17:45:55
Azimuth
Unknown
Elevation
Unknown
Doppler factor
Unknown
Orbital elements
Apogee altitude
548.418 km
Perigee altitude
546.603 km
Semi-major axis
6,925.647 km
Eccentricity
0.00013
Inclination
53.0543°
RAAN
148.056°
Arg. of periapsis
96.0611°
True anomaly
264.03777°
Mean anomaly
264.0527°
Eccentric anomaly
264.04523°
Mean motion
3.76576 °/min
Orbital period
95.6 mins
BSTAR
0.000018191
Loading maneuver chart data...
Computing Atmospheric mass density...
Loading historical data...
Loading historical data...
Loading historical data...
Loading historical data...
Loading historical data...
Loading historical data...
Loading historical data...

Documentation

Showing up to 5 results
|